| time (UTC) | temp F | wind direction | speed knots | gust knots | rain 1hr in | rain 24hr in | rain mn in | humidity % | barometer mb |
| 20260506231517 | 73 | 348 | 3.5 | 7.8 | 0.00 | 0.00 | 0.00 | 54 | 1018.5 |
| 20260506230517 | 74 | 341 | 2.6 | 5.2 | 0.00 | 0.00 | 0.00 | 54 | 1018.7 |
| 20260506225516 | 74 | 334 | 2.6 | 7.8 | 0.00 | 0.00 | 0.00 | 53 | 1018.8 |
| 20260506224515 | 73 | 340 | 2.6 | 7.8 | 0.00 | 0.00 | 0.00 | 55 | 1018.9 |
| 20260506223517 | 74 | 313 | 2.6 | 7.8 | 0.00 | 0.00 | 0.00 | 54 | 1019.0 |
| 20260506222516 | 74 | 352 | 2.6 | 7.0 | 0.00 | 0.00 | 0.00 | 54 | 1019.1 |
| 20260506221515 | 75 | 1 | 3.5 | 7.0 | 0.00 | 0.00 | 0.00 | 53 | 1019.1 |
| 20260506220517 | 75 | 359 | 3.5 | 7.8 | 0.00 | 0.00 | 0.00 | 53 | 1019.3 |
| 20260506215516 | 74 | 354 | 1.7 | 7.0 | 0.00 | 0.00 | 0.00 | 53 | 1019.4 |
| 20260506214515 | 74 | 10 | 2.6 | 5.2 | 0.00 | 0.00 | 0.00 | 54 | 1019.5 |
| 20260506213517 | 73 | 37 | 3.5 | 7.8 | 0.00 | 0.00 | 0.00 | 54 | 1019.6 |
| 20260506212516 | 72 | 4 | 2.6 | 5.2 | 0.00 | 0.00 | 0.00 | 56 | 1019.7 |
| 20260506211515 | 73 | 18 | 4.3 | 9.6 | 0.00 | 0.00 | 0.00 | 55 | 1019.9 |
| 20260506210518 | 72 | 19 | 2.6 | 7.0 | 0.00 | 0.00 | 0.00 | 57 | 1019.9 |
| 20260506205536 | 72 | 319 | 2.6 | 7.0 | 0.00 | 0.00 | 0.00 | 58 | 1020.0 |
| 20260506204515 | 72 | 19 | 3.5 | 7.8 | 0.00 | 0.00 | 0.00 | 58 | 1020.1 |
| 20260506203515 | 71 | 51 | 2.6 | 7.8 | 0.00 | 0.00 | 0.00 | 57 | 1020.2 |
| 20260506202517 | 71 | 312 | 1.7 | 3.5 | 0.00 | 0.00 | 0.00 | 58 | 1020.3 |
| 20260506201536 | 71 | 300 | 1.7 | 3.5 | 0.00 | 0.00 | 0.00 | 57 | 1020.5 |
| 20260506200515 | 71 | 329 | 1.7 | 6.1 | 0.00 | 0.00 | 0.00 | 58 | 1020.6 |
| 20260506195516 | 70 | 39 | 2.6 | 7.8 | 0.00 | 0.00 | 0.00 | 58 | 1020.7 |
| 20260506194517 | 69 | 7 | 3.5 | 7.0 | 0.00 | 0.00 | 0.00 | 61 | 1020.7 |
| 20260506193535 | 68 | 17 | 3.5 | 7.8 | 0.00 | 0.00 | 0.00 | 63 | 1020.9 |
| 20260506192517 | 68 | 351 | 1.7 | 4.3 | 0.00 | 0.00 | 0.00 | 63 | 1020.9 |
| 20260506191536 | 67 | 344 | 2.6 | 6.1 | 0.00 | 0.00 | 0.00 | 64 | 1021.0 |
| 20260506190516 | 67 | 56 | 2.6 | 6.1 | 0.00 | 0.00 | 0.00 | 64 | 1021.1 |
| 20260506185515 | 67 | 337 | 2.6 | 6.1 | 0.00 | 0.00 | 0.00 | 64 | 1021.2 |
| 20260506184517 | 67 | 25 | 2.6 | 7.0 | 0.00 | 0.00 | 0.00 | 65 | 1021.2 |
| 20260506183516 | 66 | 51 | 2.6 | 5.2 | 0.00 | 0.00 | 0.00 | 65 | 1021.3 |
| 20260506182535 | 66 | 2 | 1.7 | 3.5 | 0.00 | 0.00 | 0.00 | 65 | 1021.4 |
| 20260506181537 | 65 | 8 | 1.7 | 3.5 | 0.00 | 0.00 | 0.00 | 68 | 1021.4 |
| 20260506180516 | 64 | 16 | 1.7 | 3.5 | 0.00 | 0.00 | 0.00 | 69 | 1021.4 |
| 20260506175515 | 63 | 329 | 1.7 | 4.3 | 0.00 | 0.00 | 0.00 | 70 | 1021.4 |
| 20260506174517 | 63 | 90 | 1.7 | 3.5 | 0.00 | 0.00 | 0.00 | 70 | 1021.5 |
| 20260506173516 | 63 | 321 | 0.9 | 2.6 | 0.00 | 0.00 | 0.00 | 72 | 1021.5 |
| 20260506172515 | 62 | 311 | 0.9 | 2.6 | 0.00 | 0.00 | 0.00 | 72 | 1021.6 |
| 20260506171515 | 62 | 280 | 1.7 | 3.5 | 0.00 | 0.00 | 0.00 | 73 | 1021.6 |
| 20260506170536 | 61 | 336 | 0.9 | 2.6 | 0.00 | 0.00 | 0.00 | 75 | 1021.6 |
| 20260506165516 | 60 | 291 | 1.7 | 3.5 | 0.00 | 0.00 | 0.00 | 75 | 1021.7 |
| 20260506164515 | 60 | 2 | 1.7 | 3.5 | 0.00 | 0.00 | 0.00 | 76 | 1021.7 |
| 20260506163517 | 60 | 0 | 0.9 | 3.5 | 0.00 | 0.00 | 0.00 | 77 | 1021.7 |
| 20260506162515 | 59 | 313 | 0.0 | 0.9 | 0.00 | 0.00 | 0.00 | 79 | 1021.6 |
| 20260506161515 | 59 | 305 | 0.9 | 2.6 | 0.00 | 0.00 | 0.00 | 79 | 1021.7 |
| 20260506160520 | 59 | 331 | 0.9 | 1.7 | 0.00 | 0.00 | 0.00 | 80 | 1021.7 |
| 20260506155517 | 58 | 321 | 0.9 | 1.7 | 0.00 | 0.00 | 0.00 | 81 | 1021.6 |
| 20260506154515 | 58 | 328 | 0.9 | 2.6 | 0.00 | 0.00 | 0.00 | 81 | 1021.6 |
| 20260506153517 | 58 | 347 | 0.9 | 1.7 | 0.00 | 0.00 | 0.00 | 82 | 1021.6 |
| 20260506152517 | 57 | 323 | 0.9 | 2.6 | 0.00 | 0.00 | 0.00 | 82 | 1021.6 |
| 20260506151521 | 57 | 333 | 0.9 | 1.7 | 0.00 | 0.00 | 0.00 | 82 | 1021.5 |
| 20260506150515 | 57 | 261 | 0.9 | 1.7 | 0.00 | 0.00 | 0.00 | 82 | 1021.6 |
| 20260506145517 | 57 | 222 | 0.0 | 0.9 | 0.00 | 0.00 | 0.00 | 83 | 1021.6 |
| 20260506144516 | 57 | 221 | 0.0 | 0.9 | 0.00 | 0.00 | 0.00 | 83 | 1021.5 |
| 20260506143535 | 56 | 229 | 0.0 | 0.9 | 0.00 | 0.00 | 0.00 | 84 | 1021.5 |
| 20260506142517 | 56 | 225 | 0.0 | 0.9 | 0.00 | 0.00 | 0.00 | 84 | 1021.4 |
| 20260506141516 | 56 | 228 | 0.0 | 0.9 | 0.00 | 0.00 | 0.00 | 85 | 1021.3 |
| 20260506140515 | 56 | 228 | 0.0 | 0.9 | 0.00 | 0.00 | 0.00 | 85 | 1021.3 |
| 20260506135517 | 56 | 0.0 | 0.0 | 0.00 | 0.00 | 0.00 | 86 | 1021.1 | |
| 20260506134516 | 55 | 331 | 0.0 | 0.9 | 0.00 | 0.00 | 0.00 | 86 | 1020.9 |
| 20260506133515 | 55 | 332 | 0.0 | 0.9 | 0.00 | 0.00 | 0.00 | 87 | 1020.8 |
| 20260506132515 | 55 | 332 | 0.0 | 0.9 | 0.00 | 0.00 | 0.00 | 88 | 1020.7 |
| 20260506131517 | 55 | 0.0 | 0.0 | 0.00 | 0.00 | 0.00 | 88 | 1020.7 | |
| 20260506130556 | 55 | 0.0 | 0.0 | 0.00 | 0.00 | 0.00 | 88 | 1020.6 | |
| 20260506125515 | 55 | 0.0 | 0.0 | 0.00 | 0.00 | 0.00 | 88 | 1020.5 | |
| 20260506124517 | 54 | 0.0 | 0.0 | 0.00 | 0.00 | 0.00 | 88 | 1020.4 | |
| 20260506123516 | 54 | 0.0 | 0.0 | 0.00 | 0.00 | 0.00 | 88 | 1020.4 | |
| 20260506122515 | 54 | 0.0 | 0.0 | 0.00 | 0.00 | 0.00 | 88 | 1020.4 | |
| 20260506121537 | 54 | 0.0 | 0.0 | 0.00 | 0.00 | 0.00 | 88 | 1020.4 | |
| 20260506120517 | 54 | 0.0 | 0.0 | 0.00 | 0.00 | 0.00 | 88 | 1020.3 | |
| 20260506115536 | 54 | 0.0 | 0.0 | 0.00 | 0.00 | 0.00 | 88 | 1020.2 | |
| 20260506114538 | 54 | 0.0 | 0.0 | 0.00 | 0.00 | 0.00 | 88 | 1020.2 | |
| 20260506113536 | 54 | 0.0 | 0.0 | 0.00 | 0.00 | 0.00 | 87 | 1020.1 | |
| 20260506112515 | 54 | 0.0 | 0.0 | 0.00 | 0.01 | 0.00 | 86 | 1020.0 | |
| 20260506111515 | 54 | 0.0 | 0.0 | 0.00 | 0.01 | 0.00 | 85 | 1020.0 | |
| 20260506110520 | 55 | 0.0 | 0.0 | 0.00 | 0.01 | 0.00 | 85 | 1020.0 | |
| 20260506105516 | 55 | 0.0 | 0.0 | 0.00 | 0.01 | 0.00 | 84 | 1019.9 | |
| 20260506104535 | 56 | 0.0 | 0.0 | 0.00 | 0.01 | 0.00 | 83 | 1019.8 | |
| 20260506103557 | 56 | 0.0 | 0.0 | 0.00 | 0.01 | 0.00 | 82 | 1019.8 | |
| 20260506102536 | 56 | 0.0 | 0.0 | 0.00 | 0.01 | 0.00 | 82 | 1019.8 | |
| 20260506101535 | 57 | 0.0 | 0.0 | 0.00 | 0.01 | 0.00 | 81 | 1019.8 | |
| 20260506100517 | 57 | 332 | 0.0 | 0.9 | 0.00 | 0.01 | 0.00 | 81 | 1019.9 |
| 20260506095516 | 57 | 330 | 0.0 | 0.9 | 0.00 | 0.01 | 0.00 | 81 | 1019.8 |
| 20260506094515 | 58 | 325 | 0.0 | 0.9 | 0.00 | 0.01 | 0.00 | 82 | 1019.8 |
| 20260506093534 | 58 | 0.0 | 0.0 | 0.00 | 0.01 | 0.00 | 82 | 1019.8 | |
| 20260506092517 | 58 | 0.0 | 0.0 | 0.00 | 0.01 | 0.00 | 82 | 1019.9 | |
| 20260506091516 | 58 | 308 | 0.0 | 0.9 | 0.00 | 0.01 | 0.00 | 81 | 1019.8 |
| 20260506090535 | 58 | 308 | 0.0 | 0.9 | 0.00 | 0.01 | 0.00 | 81 | 1019.7 |
| 20260506085517 | 58 | 0.0 | 0.0 | 0.00 | 0.01 | 0.00 | 81 | 1019.7 | |
| 20260506084516 | 58 | 0.0 | 0.0 | 0.00 | 0.01 | 0.00 | 81 | 1019.8 | |
| 20260506083515 | 58 | 311 | 0.9 | 1.7 | 0.00 | 0.01 | 0.00 | 80 | 1019.8 |
| 20260506082537 | 58 | 312 | 0.0 | 1.7 | 0.00 | 0.01 | 0.00 | 80 | 1019.8 |
| 20260506081557 | 58 | 316 | 0.0 | 1.7 | 0.00 | 0.01 | 0.00 | 80 | 1019.9 |
| 20260506080516 | 58 | 319 | 0.9 | 1.7 | 0.00 | 0.01 | 0.00 | 80 | 1019.8 |
| 20260506073515 | 58 | 327 | 0.0 | 1.7 | 0.00 | 0.01 | 0.00 | 80 | 1019.6 |
| 20260506072515 | 58 | 319 | 0.0 | 1.7 | 0.00 | 0.01 | 0.00 | 79 | 1019.6 |
| 20260506071517 | 58 | 0.0 | 0.0 | 0.00 | 0.01 | 0.00 | 79 | 1019.5 | |
| 20260506070516 | 58 | 319 | 0.0 | 0.9 | 0.00 | 0.01 | 0.00 | 79 | 1019.4 |
| 20260506062516 | 59 | 309 | 0.0 | 0.9 | 0.00 | 0.01 | 0.01 | 76 | 1019.1 |
| 20260506061515 | 59 | 314 | 0.9 | 2.6 | 0.00 | 0.01 | 0.01 | 76 | 1019.1 |
| 20260506060516 | 59 | 313 | 0.9 | 2.6 | 0.00 | 0.01 | 0.01 | 75 | 1019.0 |
| 20260506050517 | 59 | 277 | 0.0 | 1.7 | 0.00 | 0.01 | 0.01 | 75 | 1018.6 |
| 20260506044515 | 59 | 279 | 0.0 | 2.6 | 0.00 | 0.01 | 0.01 | 75 | 1018.4 |
| 20260506043517 | 59 | 302 | 0.9 | 2.6 | 0.00 | 0.01 | 0.01 | 75 | 1018.3 |
| 20260506042516 | 59 | 284 | 0.9 | 4.3 | 0.00 | 0.01 | 0.01 | 75 | 1018.3 |
| 20260506041515 | 59 | 278 | 0.9 | 3.5 | 0.00 | 0.01 | 0.01 | 75 | 1018.1 |
| 20260506040517 | 60 | 273 | 0.9 | 3.5 | 0.00 | 0.01 | 0.01 | 74 | 1018.0 |
| 20260506035517 | 60 | 284 | 0.9 | 1.7 | 0.00 | 0.01 | 0.01 | 74 | 1017.8 |
| 20260506034515 | 60 | 253 | 0.9 | 2.6 | 0.00 | 0.01 | 0.01 | 74 | 1017.7 |
| 20260506033515 | 60 | 247 | 0.9 | 2.6 | 0.00 | 0.01 | 0.01 | 73 | 1017.5 |
| 20260506032517 | 60 | 222 | 0.0 | 1.7 | 0.00 | 0.01 | 0.01 | 72 | 1017.4 |
| 20260506031516 | 60 | 255 | 0.9 | 2.6 | 0.00 | 0.01 | 0.01 | 72 | 1017.3 |
| 20260506030515 | 60 | 263 | 0.9 | 1.7 | 0.00 | 0.01 | 0.01 | 71 | 1017.2 |
| 20260506025515 | 60 | 216 | 0.9 | 2.6 | 0.00 | 0.01 | 0.01 | 71 | 1017.1 |
| 20260506024536 | 60 | 264 | 0.9 | 2.6 | 0.00 | 0.01 | 0.01 | 71 | 1017.0 |
| 20260506023516 | 61 | 258 | 0.9 | 2.6 | 0.00 | 0.01 | 0.01 | 71 | 1016.9 |
| 20260506022517 | 61 | 231 | 0.9 | 3.5 | 0.00 | 0.01 | 0.01 | 71 | 1016.9 |
| 20260506021517 | 61 | 261 | 0.9 | 3.5 | 0.00 | 0.01 | 0.01 | 70 | 1016.8 |
| 20260506020516 | 61 | 246 | 0.9 | 3.5 | 0.00 | 0.01 | 0.01 | 70 | 1016.8 |
| 20260506015535 | 61 | 235 | 0.9 | 4.3 | 0.00 | 0.01 | 0.01 | 70 | 1016.9 |
| 20260506014517 | 61 | 210 | 0.9 | 3.5 | 0.00 | 0.01 | 0.01 | 70 | 1016.9 |
| 20260506013516 | 61 | 237 | 0.9 | 6.1 | 0.00 | 0.01 | 0.01 | 70 | 1016.9 |
| 20260506012515 | 61 | 212 | 0.9 | 1.7 | 0.00 | 0.01 | 0.01 | 70 | 1016.8 |
| 20260506011517 | 61 | 211 | 0.9 | 3.5 | 0.00 | 0.01 | 0.01 | 71 | 1016.8 |
| 20260506010516 | 61 | 207 | 0.9 | 4.3 | 0.00 | 0.01 | 0.01 | 70 | 1016.8 |
| 20260506005515 | 62 | 215 | 0.9 | 4.3 | 0.00 | 0.01 | 0.01 | 70 | 1016.7 |
| 20260506004517 | 62 | 209 | 0.9 | 3.5 | 0.00 | 0.01 | 0.01 | 70 | 1016.8 |
| 20260506003516 | 62 | 203 | 1.7 | 6.1 | 0.00 | 0.01 | 0.01 | 70 | 1016.7 |
| 20260506002516 | 62 | 238 | 0.9 | 3.5 | 0.00 | 0.01 | 0.01 | 70 | 1016.6 |
| 20260506001518 | 62 | 268 | 0.9 | 3.5 | 0.00 | 0.01 | 0.01 | 69 | 1016.4 |
| 20260505235516 | 63 | 230 | 1.7 | 3.5 | 0.00 | 0.01 | 0.01 | 68 | 1016.3 |
| 20260505234515 | 63 | 202 | 0.9 | 3.5 | 0.00 | 0.01 | 0.01 | 66 | 1016.3 |
| 20260505233516 | 64 | 198 | 0.9 | 1.7 | 0.00 | 0.01 | 0.01 | 66 | 1016.3 |
| 20260505232516 | 64 | 182 | 0.9 | 3.5 | 0.00 | 0.01 | 0.01 | 66 | 1016.4 |